Flag for Puerto Rico Weather past 2 weeks in San Juan, Puerto Rico

Now
81 °F

Passing clouds.


Feels Like: 87 °F
Forecast: 82 / 89 °F
Wind: 6 mph from East

Location: Luis Munoz Marin

Current Time: Jul 28, 2014 at 12:27:30 AM

Latest Report: Jul 27, 2014 at 11:56 PM


Visibility: 10 mi

Pressure: 30.11 "Hg

Humidity: 85%

Dew point: 76 °F

Location of San JuanLocation

Historic Weather in San Juan — Graph

°F

San Juan temperature yesterday

Maximum temperature yesterday: 89 °F (at 11:56 AM)
Minimum temperature yesterday: 80 °F (at 3:56 AM)
Average temperature yesterday: 84 °F

Past Weeks' High & Low Weather Summary

 TemperatureHumidityPressure
High92 °F (Jul 15, 1:56 PM)92% (Jul 22, 2:56 AM)30.12 "Hg (Jul 22, 2:56 AM)
Low78 °F (Jul 15, 4:56 AM)50% (Jul 16, 1:56 PM)30.00 "Hg (Jul 15, 3:56 PM)
Average84 °F74%30.06 "Hg
* Reported Jul 12 10:56 PM — Jul 27 10:56 PM, San Juan, Weather by CustomWeather, © 2014

Note: Actual official high and low records may vary slightly from our data, if they occured in-between our weather recording intervals... More about our weather records

Advertising

San Juan weather history for previous 24 hours

 ConditionsComfort  
Time TempWeatherWind HumidityBarometerVisibility
10:56 PM
Jul 27
82 °FPassing clouds.12 mph85%30.12 "Hg10 mi
9:56 PM83 °FPassing clouds.9 mph82%30.11 "Hg10 mi
8:56 PM83 °FPassing clouds.12 mph82%30.11 "Hg10 mi
7:56 PM83 °FPassing clouds.13 mph79%30.10 "Hg10 mi
6:56 PM84 °FScattered clouds.14 mph80%30.09 "Hg9 mi
5:56 PM85 °FPassing clouds.17 mph75%30.06 "Hg9 mi
4:56 PM86 °FPassing clouds.18 mph75%30.03 "Hg9 mi
3:56 PM87 °FPassing clouds.23 mph72%30.03 "Hg9 mi
2:56 PM88 °FPassing clouds.21 mph67%30.03 "Hg9 mi
1:56 PM88 °FPassing clouds.21 mph70%30.05 "Hg8 mi
12:56 PM89 °FPassing clouds.16 mph68%30.06 "Hg8 mi
11:56 AM89 °FPassing clouds.15 mph65%30.08 "Hg8 mi
10:56 AM88 °FPassing clouds.16 mph63%30.09 "Hg8 mi
9:56 AM87 °FScattered clouds.14 mph67%30.09 "Hg8 mi
8:56 AM85 °FScattered clouds.8 mph75%30.09 "Hg8 mi
7:56 AM83 °FPassing clouds.7 mph79%30.08 "Hg8 mi
6:56 AM81 °FPassing clouds.5 mph82%30.07 "Hg8 mi
5:56 AM80 °FPassing clouds.3 mph85%30.05 "Hg7 mi
5:03 AM81 °FPassing clouds.5 mph84%30.06 "Hg10 mi
4:56 AM80 °FPassing clouds.5 mph85%30.05 "Hg10 mi
3:56 AM80 °FPassing clouds.3 mph85%30.04 "Hg10 mi
2:56 AM81 °FPassing clouds.5 mph85%30.05 "Hg10 mi
1:56 AM82 °FPassing clouds.5 mph82%30.07 "Hg10 mi
12:56 AM82 °FPassing clouds.5 mph82%30.08 "Hg10 mi
Weather by CustomWeather, © 2014

See weather overviewHow to use our weather pages